TimeCST,TemperatureF,Dew PointF,Humidity,Sea Level PressureIn,VisibilityMPH,Wind Direction,Wind SpeedMPH,Gust SpeedMPH,PrecipitationIn,Events,Conditions,WindDirDegrees,DateUTC
12:15 AM,46.4,35.6,66,29.97,5.0,South,8.1,18.4,0.03,Rain,Rain,190,2013-02-19 06:15:00
12:35 AM,44.6,37.4,76,29.97,5.0,South,5.8,-,0.08,Rain,Rain,190,2013-02-19 06:35:00
12:55 AM,44.6,39.2,81,30.00,5.0,West,10.4,16.1,0.13,Rain,Rain,270,2013-02-19 06:55:00
1:15 AM,42.8,42.8,100,30.02,7.0,WNW,8.1,-,0.04,Rain,Light Rain,300,2013-02-19 07:15:00
1:35 AM,42.8,42.8,100,30.02,7.0,NW,5.8,-,0.06,Rain,Rain,310,2013-02-19 07:35:00
1:55 AM,42.8,42.8,100,30.03,5.0,Calm,Calm,-,0.10,Rain,Light Rain,0,2013-02-19 07:55:00
2:15 AM,42.8,42.8,100,30.01,3.0,SE,3.5,-,0.03,Rain,Light Rain,130,2013-02-19 08:15:00
2:35 AM,42.8,-9999,N/A,29.99,7.0,SE,5.8,-,0.04,Rain,Rain,130,2013-02-19 08:35:00
3:15 AM,42.8,-9999,N/A,29.96,7.0,SSE,9.2,-,N/A,Rain,Light Rain,150,2013-02-19 09:15:00
3:35 AM,42.8,-9999,N/A,29.96,10.0,SSE,8.1,-,0.01,Rain,Light Rain,150,2013-02-19 09:35:00
3:55 AM,44.6,-9999,N/A,29.95,7.0,SSE,8.1,-,0.02,Rain,Light Rain,150,2013-02-19 09:55:00
4:15 AM,44.6,-9999,N/A,29.93,10.0,SSE,8.1,-,N/A,Rain,Light Rain,160,2013-02-19 10:15:00
4:35 AM,44.6,44.6,100,29.96,10.0,South,6.9,-,N/A,,Overcast,170,2013-02-19 10:35:00
4:55 AM,44.6,-9999,N/A,29.95,10.0,SSE,10.4,16.1,N/A,,Overcast,160,2013-02-19 10:55:00
5:15 AM,42.8,-9999,N/A,29.95,10.0,SSE,6.9,-,N/A,,Mostly Cloudy,160,2013-02-19 11:15:00
6:15 AM,42.8,-9999,N/A,29.98,4.0,South,3.5,-,N/A,,Haze,170,2013-02-19 12:15:00
6:35 AM,44.6,-9999,N/A,30.00,4.0,SW,3.5,-,N/A,,Haze,220,2013-02-19 12:35:00
6:55 AM,44.6,-9999,N/A,30.01,2.0,West,4.6,-,N/A,,Light Drizzle,260,2013-02-19 12:55:00
7:15 AM,44.6,-9999,N/A,30.02,1.5,WSW,5.8,-,0.01,,Drizzle,250,2013-02-19 13:15:00
7:35 AM,44.6,-9999,N/A,30.03,3.0,West,8.1,-,0.01,,Overcast,280,2013-02-19 13:35:00
7:55 AM,44.6,-9999,N/A,30.05,5.0,WNW,11.5,16.1,0.01,,Haze,300,2013-02-19 13:55:00
8:15 AM,44.6,-9999,N/A,30.06,7.0,NW,13.8,18.4,N/A,,Overcast,310,2013-02-19 14:15:00
8:35 AM,44.6,44.6,100,30.07,7.0,NW,10.4,19.6,N/A,,Overcast,310,2013-02-19 14:35:00
8:55 AM,44.6,44.6,100,30.07,10.0,NW,17.3,21.9,N/A,,Overcast,310,2013-02-19 14:55:00
9:15 AM,44.6,44.6,100,30.08,10.0,NW,13.8,19.6,N/A,,Mostly Cloudy,320,2013-02-19 15:15:00
10:15 AM,46.4,35.6,66,30.10,10.0,NW,13.8,19.6,N/A,,Clear,320,2013-02-19 16:15:00
10:35 AM,48.2,35.6,62,30.10,10.0,NW,11.5,18.4,N/A,,Clear,320,2013-02-19 16:35:00
10:55 AM,48.2,33.8,58,30.11,10.0,WNW,16.1,19.6,N/A,,Clear,290,2013-02-19 16:55:00
11:15 AM,50.0,35.6,58,30.10,10.0,WNW,13.8,17.3,N/A,,Clear,290,2013-02-19 17:15:00
11:35 AM,50.0,32.0,50,30.10,10.0,NW,16.1,20.7,N/A,,Clear,320,2013-02-19 17:35:00
11:55 AM,51.8,32.0,47,30.10,10.0,WNW,11.5,17.3,N/A,,Clear,290,2013-02-19 17:55:00
12:15 PM,51.8,30.2,44,30.09,10.0,NW,16.1,-,N/A,,Clear,320,2013-02-19 18:15:00
12:35 PM,51.8,30.2,44,30.09,10.0,WNW,12.7,20.7,N/A,,Clear,290,2013-02-19 18:35:00
12:55 PM,53.6,23.0,30,30.08,10.0,West,20.7,25.3,N/A,,Clear,280,2013-02-19 18:55:00
1:15 PM,51.8,23.0,33,30.08,10.0,WNW,17.3,24.2,N/A,,Clear,300,2013-02-19 19:15:00
1:35 PM,51.8,23.0,33,30.09,10.0,WNW,16.1,29.9,N/A,,Clear,290,2013-02-19 19:35:00
1:55 PM,53.6,24.8,33,30.09,10.0,WNW,15.0,20.7,N/A,,Clear,300,2013-02-19 19:55:00
2:15 PM,51.8,23.0,33,30.09,10.0,NW,16.1,24.2,N/A,,Clear,310,2013-02-19 20:15:00
2:35 PM,51.8,23.0,33,30.09,10.0,WNW,10.4,21.9,N/A,,Clear,300,2013-02-19 20:35:00
2:55 PM,51.8,23.0,33,30.10,10.0,NW,13.8,24.2,N/A,,Clear,310,2013-02-19 20:55:00
3:15 PM,51.8,23.0,33,30.10,10.0,NW,13.8,23.0,N/A,,Clear,310,2013-02-19 21:15:00
3:35 PM,51.8,21.2,30,30.11,10.0,WNW,13.8,20.7,N/A,,Clear,300,2013-02-19 21:35:00
3:55 PM,51.8,21.2,30,30.11,10.0,WNW,13.8,23.0,N/A,,Clear,300,2013-02-19 21:55:00
4:15 PM,50.0,19.4,30,30.12,10.0,WNW,16.1,23.0,N/A,,Clear,290,2013-02-19 22:15:00
4:35 PM,50.0,19.4,30,30.12,10.0,West,13.8,19.6,N/A,,Clear,280,2013-02-19 22:35:00
4:55 PM,48.2,19.4,32,30.12,10.0,WNW,10.4,20.7,N/A,,Clear,300,2013-02-19 22:55:00
5:15 PM,46.4,17.6,32,30.14,10.0,WNW,13.8,19.6,N/A,,Clear,290,2013-02-19 23:15:00
6:35 PM,42.8,19.4,39,30.15,10.0,WNW,6.9,-,N/A,,Clear,300,2013-02-20 00:35:00
7:15 PM,42.8,19.4,39,30.16,10.0,WNW,8.1,-,N/A,,Clear,300,2013-02-20 01:15:00
7:35 PM,41.0,19.4,42,30.15,10.0,WNW,5.8,-,N/A,,Clear,300,2013-02-20 01:35:00
7:55 PM,41.0,19.4,42,30.15,10.0,WNW,6.9,-,N/A,,Clear,300,2013-02-20 01:55:00
8:15 PM,41.0,19.4,42,30.16,10.0,NW,9.2,-,N/A,,Clear,310,2013-02-20 02:15:00
8:35 PM,41.0,19.4,42,30.17,10.0,WNW,8.1,-,N/A,,Clear,300,2013-02-20 02:35:00
8:55 PM,41.0,19.4,42,30.19,10.0,NW,10.4,-,N/A,,Clear,310,2013-02-20 02:55:00
9:15 PM,39.2,19.4,45,30.20,10.0,NW,6.9,-,N/A,,Clear,320,2013-02-20 03:15:00
9:35 PM,37.4,19.4,48,30.20,10.0,NW,6.9,-,N/A,,Clear,320,2013-02-20 03:35:00
9:55 PM,37.4,19.4,48,30.20,10.0,NW,8.1,-,N/A,,Clear,320,2013-02-20 03:55:00
10:15 PM,37.4,19.4,48,30.19,10.0,NW,6.9,-,N/A,,Clear,320,2013-02-20 04:15:00
10:35 PM,35.6,21.2,56,30.20,10.0,NNW,6.9,-,N/A,,Clear,330,2013-02-20 04:35:00
10:55 PM,35.6,21.2,56,30.21,10.0,NW,6.9,-,N/A,,Clear,320,2013-02-20 04:55:00
11:15 PM,35.6,21.2,56,30.21,10.0,NNW,6.9,-,N/A,,Clear,330,2013-02-20 05:15:00
11:35 PM,35.6,21.2,56,30.20,10.0,NNW,4.6,-,N/A,,Clear,330,2013-02-20 05:35:00
11:55 PM,35.6,21.2,56,30.20,10.0,NNW,4.6,-,N/A,,Clear,330,2013-02-20 05:55:00